Weather History for Kirksville, MO

Change the Weather History Date:

Wednesday, July 24, 2013

  Actual Average Record
Temperature  
Mean Temperature 69 °F 76 °F  
Max Temperature 81 °F 86 °F 110 °F (1934)
Min Temperature 57 °F 65 °F 53 °F (1957)
Degree Days  
Heating Degree Days 0 0  
Month to date heating degree days 0 0  
Since 1 June heating degree days 36 16  
Since 1 July heating degree days 0 0  
Cooling Degree Days 4 11  
Month to date cooling degree days 234 239  
Year to date cooling degree days 509 493  
Since 1 June cooling degree days 441 431  
Growing Degree Days 18 (Base 50)    
Moisture  
Dew Point 58 °F    
Average Humidity 73    
Maximum Humidity 100    
Minimum Humidity 45    
Precipitation  
Precipitation 0.00 in 0.16 in 7.32 in (2008)
Month to date precipitation 0.63 3.53  
Year to date precipitation 28.54 22.46  
Sea Level Pressure  
Sea Level Pressure 30.03 in    
Wind  
Wind Speed 4 mph (NE)    
Max Wind Speed 12 mph    
Max Gust Speed 16 mph    
Visibility 10 miles    
Events      
T = Trace of Precipitation, MM = Missing Value Source: NWS Daily Summary

Daily Weather History Graph

Daily Weather History Graph

Search for Another Location

Airport:

Trip Planner

Search our weather history database for the weather conditions in past years. The results will help you decide how hot, cold, wet, or windy it might be!

Date:

Astronomy

Jul. 24, 2013 Rise Set
Actual Time 6:01 AM CDT 8:31 PM CDT
Civil Twilight 5:30 AM CDT 9:02 PM CDT
Nautical Twilight 4:51 AM CDT 9:41 PM CDT
Astronomical Twilight 4:08 AM CDT 10:23 PM CDT
Moon 9:37 PM CDT (7/24) 8:22 AM CDT (7/24)
Length of Visible Light 15h 32m
Length of Day
14h 30m
Waning Gibbous, 94% of the Moon is Illuminated
Jul 24
Waning Gibbous
Jul 29
Last Quarter
Aug 6
New
Aug 14
First Quarter
Aug 20
Full

Hourly Weather History & Observations

Time (CDT) Temp. Heat Index Dew Point Humidity Pressure Visibility Wind Dir Wind Speed Gust Speed Precip Events Conditions
12:55 AM 62.1 °F - 57.9 °F 86% 29.96 in 10.0 mi North 6.9 mph - N/A   Clear
1:55 AM 61.0 °F - 57.0 °F 87% 29.97 in 10.0 mi NNE 5.8 mph - N/A   Clear
2:55 AM 59.0 °F - 57.0 °F 93% 29.99 in 10.0 mi Calm Calm - N/A   Clear
3:55 AM 59.0 °F - 57.0 °F 93% 29.99 in 10.0 mi NNE 4.6 mph - N/A   Mostly Cloudy
4:55 AM 61.0 °F - 57.9 °F 90% 30.01 in 10.0 mi NNE 3.5 mph - N/A   Partly Cloudy
5:55 AM 57.9 °F - 55.9 °F 93% 30.02 in 10.0 mi NNE 4.6 mph - N/A   Clear
6:55 AM 61.0 °F - 57.9 °F 90% 30.03 in 10.0 mi NNE 5.8 mph - N/A   Clear
7:55 AM 64.0 °F - 60.1 °F 87% 30.03 in 10.0 mi East 6.9 mph - N/A   Clear
8:55 AM 68.0 °F - 57.9 °F 70% 30.04 in 10.0 mi SE 8.1 mph - N/A   Clear
9:55 AM 71.1 °F - 57.9 °F 63% 30.05 in 10.0 mi ESE 8.1 mph - N/A   Clear
10:55 AM 73.9 °F - 59.0 °F 59% 30.05 in 10.0 mi ESE 4.6 mph - N/A   Clear
11:55 AM 77.0 °F - 60.1 °F 56% 30.07 in 10.0 mi NNE 4.6 mph - N/A   Clear
12:55 PM 78.1 °F - 57.9 °F 50% 30.06 in 10.0 mi NE 3.5 mph - N/A   Partly Cloudy
1:55 PM 78.1 °F - 57.9 °F 50% 30.06 in 10.0 mi ENE 6.9 mph - N/A   Scattered Clouds
2:55 PM 79.0 °F - 59.0 °F 50% 30.06 in 10.0 mi NE 8.1 mph - N/A   Mostly Cloudy
3:55 PM 80.1 °F 80.6 °F 57.9 °F 47% 30.05 in 10.0 mi Variable 5.8 mph - N/A   Scattered Clouds
4:55 PM 77.0 °F - 57.9 °F 52% 30.04 in 10.0 mi Calm Calm - N/A   Partly Cloudy
5:55 PM 77.0 °F - 59.0 °F 54% 30.04 in 10.0 mi NNE 4.6 mph - N/A   Partly Cloudy
6:55 PM 77.0 °F - 60.1 °F 56% 30.04 in 10.0 mi NE 6.9 mph - N/A   Partly Cloudy
7:55 PM 73.0 °F - 60.1 °F 64% 30.04 in 10.0 mi ENE 3.5 mph - N/A   Mostly Cloudy
8:55 PM 69.1 °F - 60.1 °F 73% 30.04 in 10.0 mi Calm Calm - N/A   Clear
9:55 PM 62.1 °F - 59.0 °F 90% 30.06 in 10.0 mi Calm Calm - N/A   Clear
10:55 PM 60.1 °F - 59.0 °F 96% 30.06 in 10.0 mi Calm Calm - N/A   Clear
11:55 PM 57.9 °F - 57.0 °F 97% 30.07 in 9.0 mi Calm Calm - N/A   Clear